Time,TemperatureF,DewpointF,PressureIn,WindDirection,WindDirectionDegrees,WindSpeedMPH,WindSpeedGustMPH,Humidity,HourlyPrecipIn,Conditions,Clouds,dailyrainin,SolarRadiationWatts/m^2,SoftwareType,DateUTC
2013-10-25 00:01:00,69.0,16.0,-100.00,WNW,297,2.0,8.0,13,0.00,,,0.00,0.000000,,2013-10-25 07:01:00,
2013-10-25 00:11:00,69.0,16.0,-100.00,WNW,297,2.0,8.0,13,0.00,,,0.00,0.000000,,2013-10-25 07:11:00,
2013-10-25 00:21:00,69.0,16.0,-100.00,WNW,297,2.0,8.0,13,0.00,,,0.00,0.000000,,2013-10-25 07:21:00,
2013-10-25 00:51:00,66.0,17.0,-100.00,SSE,157,0.0,6.0,15,0.00,,,0.00,0.000000,,2013-10-25 07:51:00,
2013-10-25 01:01:00,66.0,17.0,-100.00,SSE,157,0.0,6.0,15,0.00,,,0.00,0.000000,,2013-10-25 08:01:00,
2013-10-25 01:10:00,66.0,17.0,-100.00,SSE,157,0.0,6.0,15,0.00,,,0.00,0.000000,,2013-10-25 08:10:00,
2013-10-25 01:21:00,66.0,17.0,-100.00,SSE,157,0.0,6.0,15,0.00,,,0.00,0.000000,,2013-10-25 08:21:00,
2013-10-25 01:51:00,68.0,19.0,-100.00,West,278,0.0,2.0,15,0.00,,,-99.99,0.000000,,2013-10-25 08:51:00,
2013-10-25 02:01:00,68.0,19.0,-100.00,West,278,0.0,2.0,15,0.00,,,-99.99,0.000000,,2013-10-25 09:01:00,
2013-10-25 02:11:00,68.0,19.0,-100.00,West,278,0.0,2.0,15,0.00,,,-99.99,0.000000,,2013-10-25 09:11:00,
2013-10-25 02:21:00,68.0,19.0,-100.00,West,278,0.0,2.0,15,0.00,,,-99.99,0.000000,,2013-10-25 09:21:00,
2013-10-25 02:52:00,65.0,16.0,-100.00,West,281,0.0,5.0,15,0.00,,,0.00,0.000000,,2013-10-25 09:52:00,
2013-10-25 03:01:00,65.0,16.0,-100.00,West,281,0.0,5.0,15,0.00,,,0.00,0.000000,,2013-10-25 10:01:00,
2013-10-25 03:11:00,65.0,16.0,-100.00,West,281,0.0,5.0,15,0.00,,,0.00,0.000000,,2013-10-25 10:11:00,
2013-10-25 03:21:00,65.0,16.0,-100.00,West,281,0.0,5.0,15,0.00,,,0.00,0.000000,,2013-10-25 10:21:00,
2013-10-25 03:52:00,62.0,17.0,-100.00,NW,322,3.0,4.0,17,0.00,,,0.00,0.000000,,2013-10-25 10:52:00,
2013-10-25 04:02:00,62.0,17.0,-100.00,NW,322,3.0,4.0,17,0.00,,,0.00,0.000000,,2013-10-25 11:02:00,
2013-10-25 04:11:00,62.0,17.0,-100.00,NW,322,3.0,4.0,17,0.00,,,0.00,0.000000,,2013-10-25 11:11:00,
2013-10-25 04:21:00,62.0,17.0,-100.00,NW,322,3.0,4.0,17,0.00,,,0.00,0.000000,,2013-10-25 11:21:00,
2013-10-25 04:51:00,64.0,18.0,-100.00,SSE,149,0.0,4.0,17,0.00,,,0.00,0.000000,,2013-10-25 11:51:00,
2013-10-25 05:01:00,64.0,18.0,-100.00,SSE,149,0.0,4.0,17,0.00,,,0.00,0.000000,,2013-10-25 12:01:00,
2013-10-25 05:10:00,64.0,18.0,-100.00,SSE,149,0.0,4.0,17,0.00,,,0.00,0.000000,,2013-10-25 12:10:00,
2013-10-25 05:21:00,64.0,18.0,-100.00,SSE,149,0.0,4.0,17,0.00,,,0.00,0.000000,,2013-10-25 12:21:00,
2013-10-25 06:11:00,65.0,18.0,-100.00,SW,226,0.0,7.0,16,0.00,,,0.00,0.000000,,2013-10-25 13:11:00,
2013-10-25 06:52:00,63.0,16.0,-100.00,South,176,0.0,4.0,16,0.00,,,0.00,0.000000,,2013-10-25 13:52:00,
2013-10-25 07:02:00,63.0,16.0,-100.00,South,176,0.0,4.0,16,0.00,,,0.00,0.000000,,2013-10-25 14:02:00,
2013-10-25 07:11:00,63.0,16.0,-100.00,South,176,0.0,4.0,16,0.00,,,0.00,0.000000,,2013-10-25 14:11:00,
2013-10-25 07:22:00,63.0,16.0,-100.00,South,176,0.0,4.0,16,0.00,,,0.00,0.000000,,2013-10-25 14:22:00,
2013-10-25 07:52:00,62.0,17.0,-100.00,SW,214,0.0,2.0,17,0.00,,,0.00,5.000000,,2013-10-25 14:52:00,
2013-10-25 08:01:00,62.0,17.0,-100.00,SW,214,0.0,2.0,17,0.00,,,0.00,5.000000,,2013-10-25 15:01:00,
2013-10-25 08:11:00,62.0,17.0,-100.00,SW,214,0.0,2.0,17,0.00,,,0.00,5.000000,,2013-10-25 15:11:00,
2013-10-25 13:22:00,80.0,16.0,-100.00,East,96,2.0,7.0,9,-99.99,,,0.00,917.000000,,2013-10-25 20:22:00,
2013-10-25 13:52:00,80.0,13.0,-100.00,ENE,64,1.0,8.0,8,0.00,,,0.00,935.000000,,2013-10-25 20:52:00,
2013-10-25 14:02:00,80.0,13.0,-100.00,ENE,64,1.0,8.0,8,0.00,,,0.00,935.000000,,2013-10-25 21:02:00,
2013-10-25 14:11:00,80.0,13.0,-100.00,ENE,64,1.0,8.0,8,0.00,,,0.00,935.000000,,2013-10-25 21:11:00,
2013-10-25 14:21:00,80.0,13.0,-100.00,ENE,64,1.0,8.0,8,0.00,,,0.00,935.000000,,2013-10-25 21:21:00,
2013-10-25 14:54:00,80.0,13.0,-100.00,SE,128,5.0,10.0,8,0.00,,,0.00,868.000000,,2013-10-25 21:54:00,
2013-10-25 15:04:00,80.0,13.0,-100.00,SE,128,5.0,10.0,8,0.00,,,0.00,868.000000,,2013-10-25 22:04:00,
2013-10-25 15:13:00,80.0,13.0,-100.00,SE,128,5.0,10.0,8,0.00,,,0.00,868.000000,,2013-10-25 22:13:00,
2013-10-25 15:23:00,80.0,13.0,-100.00,SE,128,5.0,10.0,8,0.00,,,0.00,868.000000,,2013-10-25 22:23:00,
2013-10-25 15:52:00,80.0,13.0,-100.00,SE,136,6.0,13.0,8,0.00,,,0.00,721.000000,,2013-10-25 22:52:00,
2013-10-25 16:03:00,80.0,13.0,-100.00,SE,136,6.0,13.0,8,0.00,,,0.00,721.000000,,2013-10-25 23:03:00,
2013-10-25 16:12:00,80.0,13.0,-100.00,SE,136,6.0,13.0,8,0.00,,,0.00,721.000000,,2013-10-25 23:12:00,
2013-10-25 16:22:00,80.0,13.0,-100.00,SE,136,6.0,13.0,8,0.00,,,0.00,721.000000,,2013-10-25 23:22:00,
2013-10-25 16:52:00,80.0,13.0,-100.00,SE,143,5.0,13.0,8,0.00,,,0.00,497.000000,,2013-10-25 23:52:00,
2013-10-25 17:02:00,80.0,13.0,-100.00,SE,143,5.0,13.0,8,0.00,,,0.00,497.000000,,2013-10-26 00:02:00,
2013-10-25 17:11:00,80.0,13.0,-100.00,SE,143,5.0,13.0,8,0.00,,,0.00,497.000000,,2013-10-26 00:11:00,
2013-10-25 17:21:00,80.0,13.0,-100.00,SE,143,5.0,13.0,8,0.00,,,0.00,497.000000,,2013-10-26 00:21:00,
2013-10-25 17:52:00,75.0,12.0,-100.00,SSE,148,2.0,11.0,9,0.00,,,0.00,206.000000,,2013-10-26 00:52:00,
2013-10-25 18:01:00,75.0,12.0,-100.00,SSE,148,2.0,11.0,9,0.00,,,0.00,206.000000,,2013-10-26 01:01:00,
2013-10-25 18:12:00,75.0,12.0,-100.00,SSE,148,2.0,11.0,9,0.00,,,0.00,206.000000,,2013-10-26 01:12:00,
2013-10-25 18:21:00,75.0,12.0,-100.00,SSE,148,2.0,11.0,9,0.00,,,0.00,206.000000,,2013-10-26 01:21:00,
2013-10-25 18:52:00,73.0,13.0,-100.00,WSW,252,7.0,14.0,10,0.00,,,0.00,12.000000,,2013-10-26 01:52:00,
2013-10-25 19:02:00,73.0,13.0,-100.00,WSW,252,7.0,14.0,10,0.00,,,0.00,12.000000,,2013-10-26 02:02:00,
2013-10-25 19:12:00,73.0,13.0,-100.00,WSW,252,7.0,14.0,10,0.00,,,0.00,12.000000,,2013-10-26 02:12:00,
2013-10-25 19:22:00,73.0,13.0,-100.00,WSW,252,7.0,14.0,10,0.00,,,0.00,12.000000,,2013-10-26 02:22:00,
2013-10-25 19:52:00,73.0,13.0,-100.00,West,261,9.0,12.0,10,0.00,,,0.00,0.000000,,2013-10-26 02:52:00,
2013-10-25 20:02:00,73.0,13.0,-100.00,West,261,9.0,12.0,10,0.00,,,0.00,0.000000,,2013-10-26 03:02:00,
2013-10-25 20:12:00,73.0,13.0,-100.00,West,261,9.0,12.0,10,0.00,,,0.00,0.000000,,2013-10-26 03:12:00,
2013-10-25 20:21:00,73.0,13.0,-100.00,West,261,9.0,12.0,10,0.00,,,0.00,0.000000,,2013-10-26 03:21:00,
2013-10-25 20:54:00,73.0,15.0,-100.00,West,270,6.0,13.0,11,0.00,,,0.00,0.000000,,2013-10-26 03:54:00,
2013-10-25 21:04:00,73.0,15.0,-100.00,West,270,6.0,13.0,11,0.00,,,0.00,0.000000,,2013-10-26 04:04:00,
2013-10-25 21:14:00,73.0,15.0,-100.00,West,270,6.0,13.0,11,0.00,,,0.00,0.000000,,2013-10-26 04:14:00,
2013-10-25 21:54:00,69.0,16.0,-100.00,East,84,0.0,7.0,13,-99.99,,,0.00,0.000000,,2013-10-26 04:54:00,
2013-10-25 22:03:00,69.0,16.0,-100.00,East,84,0.0,7.0,13,-99.99,,,0.00,0.000000,,2013-10-26 05:03:00,
2013-10-25 22:13:00,69.0,16.0,-100.00,East,84,0.0,7.0,13,-99.99,,,0.00,0.000000,,2013-10-26 05:13:00,
2013-10-25 22:23:00,69.0,16.0,-100.00,East,84,0.0,7.0,13,-99.99,,,0.00,0.000000,,2013-10-26 05:23:00,
2013-10-25 22:52:00,69.0,16.0,-100.00,NNW,329,5.0,6.0,13,0.00,,,0.00,0.000000,,2013-10-26 05:52:00,
2013-10-25 23:02:00,69.0,16.0,-100.00,NNW,329,5.0,6.0,13,0.00,,,0.00,0.000000,,2013-10-26 06:02:00,
2013-10-25 23:12:00,69.0,16.0,-100.00,NNW,329,5.0,6.0,13,0.00,,,0.00,0.000000,,2013-10-26 06:12:00,
2013-10-25 23:22:00,69.0,16.0,-100.00,NNW,329,5.0,6.0,13,0.00,,,0.00,0.000000,,2013-10-26 06:22:00,
2013-10-25 23:52:00,68.0,17.0,-100.00,NW,310,0.0,5.0,14,0.00,,,0.00,0.000000,,2013-10-26 06:52:00,